Content
SEND FEEDBACK

Daily
Averages
Monthly
Summary
United States of America

NEW YORK - UPPER EAST SIDE, NEW YORK


Home > North America > United States > New York
Elevation: 132 feet     Latitude: 40 47N     Longitude: 073 58W

WEATHER
 
SELECT A DAY
Number of Records: 148,014;   Date Range: 11/1/95 - 7/22/14
 
SHARE

PRINT THIS DATA

[ ← Previous Day ]
WEATHER ALMANAC - JANUARY 10, 2013
[ Next Day → ]
[ °C ]   °F
Weather ElementAverageHighLow
Temperature43.3 °F46.9 °F (2:51 pm)39.9 °F (11:51 pm)
Dewpoint22.5 °F28 °F (1:51 am)19.9 °F (1:51 pm)
Humidity44.1 %53 % (1:51 am)34 % (2:51 pm)
Barometer30.46 in30.54 in (11:51 pm)30.28 in (1:51 am)
Wind Speed6.8 mph12.7 mph (1:51 am)
Wind Gust21.9 mph (4:51 am)
Weather ElementAverage
Visibility10 mi
Wind DirectionSSE (172.6 °)

Weather ElementTotal
Precipitation---
Heating Degree Days21.6 (Base 65)
Averaged from 23 records on January 10, 2013
WEATHER CONDITIONS BREAKOUT
WIND DIRECTION BREAKOUT
WEATHER BY HOUR - JANUARY 10, 2013
[ °C ]   °F
Local TimeTemperatureDewpointHumidityBarometerVisibilityWind DirectionWind SpeedGust SpeedPrecipitationEventsConditions
1:51 AM44.1 °F28.0 °F53 %30.28 in10.0 miWest (280°)12.7 mph20.7 mphClear
2:51 AM44.1 °F25.0 °F47 %30.31 in10.0 miWest (280°)10.4 mph18.4 mphClear
3:51 AM43.0 °F25.0 °F49 %30.33 in10.0 miWNW (300°)3.5 mphClear
4:51 AM42.1 °F23.0 °F47 %30.35 in10.0 miWNW (300°)6.9 mph21.9 mphClear
5:51 AM41.0 °F23.0 °F49 %30.38 in10.0 miVariable6.9 mph21.9 mphClear
6:51 AM41.0 °F24.1 °F51 %30.41 in10.0 miWest (280°)3.5 mphClear
7:51 AM41.0 °F24.1 °F51 %30.45 in10.0 miVariable3.5 mphClear
8:51 AM41.0 °F23.0 °F49 %30.47 in10.0 miWNW (300°)8.1 mph18.4 mphClear
9:51 AM43.0 °F23.0 °F45 %30.50 in10.0 miNW (320°)8.1 mphClear
10:51 AM43.0 °F21.9 °F43 %30.49 in10.0 miWNW (300°)9.2 mph17.3 mphClear
11:51 AM44.1 °F21.0 °F40 %30.46 in10.0 miVariable4.6 mphClear
12:51 PM46.0 °F21.0 °F37 %30.45 in10.0 miWNW (300°)12.7 mph19.6 mphClear
1:51 PM46.0 °F19.9 °F35 %30.46 in10.0 miNW (310°)9.2 mphClear
2:51 PM46.9 °F19.9 °F34 %30.47 in10.0 miWNW (300°)8.1 mph19.6 mphClear
3:51 PM46.0 °F21.0 °F37 %30.48 in10.0 miNW (310°)6.9 mphClear
4:51 PM46.0 °F21.0 °F37 %30.50 in10.0 miVariable5.8 mphClear
5:51 PM45.0 °F21.9 °F40 %30.50 in10.0 miVariable6.9 mphClear
6:51 PM44.1 °F21.9 °F42 %30.52 in10.0 miWNW (300°)4.6 mphClear
7:51 PM44.1 °F21.9 °F42 %30.53 in10.0 miVariable3.5 mphClear
8:51 PM42.1 °F21.9 °F45 %30.53 in10.0 miVariable3.5 mphClear
9:51 PM42.1 °F21.9 °F45 %30.53 in10.0 miNE (50°)8.1 mphClear
10:51 PM41.0 °F21.9 °F47 %30.53 in10.0 miNE (40°)4.6 mphClear
11:51 PM39.9 °F21.9 °F49 %30.54 in10.0 miVariable4.6 mphClear
Hourly data recorded from KNYC, located miles away from New York - Upper East Side, New York







STORIES FROM OUR PARTNERS